Year,Month,Day,Hour,Minute,Value (Times are PST for temperature in C)
2015,06,23,00,00,18.40
2015,06,23,00,01,18.40
2015,06,23,00,02,18.40
2015,06,23,00,03,18.40
2015,06,23,00,04,18.40
2015,06,23,00,05,18.40
2015,06,23,00,06,18.40
2015,06,23,00,07,18.40
2015,06,23,00,08,18.40
2015,06,23,00,09,18.30
2015,06,23,00,10,18.30
2015,06,23,00,11,18.30
2015,06,23,00,12,18.30
2015,06,23,00,13,18.40
2015,06,23,00,14,18.40
2015,06,23,00,15,18.40
2015,06,23,00,16,18.30
2015,06,23,00,17,18.30
2015,06,23,00,18,18.30
2015,06,23,00,19,18.30
2015,06,23,00,20,18.30
2015,06,23,00,21,18.30
2015,06,23,00,22,18.20
2015,06,23,00,23,18.20
2015,06,23,00,24,18.20
2015,06,23,00,25,18.20
2015,06,23,00,26,18.20
2015,06,23,00,27,18.20
2015,06,23,00,28,18.20
2015,06,23,00,29,18.20
2015,06,23,00,30,18.20
2015,06,23,00,31,18.20
2015,06,23,00,32,18.20
2015,06,23,00,33,18.20
2015,06,23,00,34,18.20
2015,06,23,00,35,18.20
2015,06,23,00,36,18.20
2015,06,23,00,37,18.10
2015,06,23,00,38,18.10
2015,06,23,00,39,18.10
2015,06,23,00,40,18.10
2015,06,23,00,41,18.00
2015,06,23,00,42,17.90
2015,06,23,00,43,17.90
2015,06,23,00,44,17.90
2015,06,23,00,45,17.90
2015,06,23,00,46,17.90
2015,06,23,00,47,17.90
2015,06,23,00,48,17.80
2015,06,23,00,49,17.80
2015,06,23,00,50,17.80
2015,06,23,00,51,17.80
2015,06,23,00,52,17.80
2015,06,23,00,53,17.80
2015,06,23,00,54,17.80
2015,06,23,00,55,17.80
2015,06,23,00,56,17.80
2015,06,23,00,57,17.80
2015,06,23,00,58,17.80
2015,06,23,00,59,17.80
2015,06,23,01,00,17.80
2015,06,23,01,01,17.70
2015,06,23,01,02,17.70
2015,06,23,01,03,17.70
2015,06,23,01,04,17.70
2015,06,23,01,05,17.70
2015,06,23,01,06,17.70
2015,06,23,01,07,17.60
2015,06,23,01,08,17.60
2015,06,23,01,09,17.60
2015,06,23,01,10,17.60
2015,06,23,01,11,17.60
2015,06,23,01,12,17.60
2015,06,23,01,13,17.50
2015,06,23,01,14,17.50
2015,06,23,01,15,17.50
2015,06,23,01,16,17.40
2015,06,23,01,17,17.40
2015,06,23,01,18,17.40
2015,06,23,01,19,17.40
2015,06,23,01,20,17.40
2015,06,23,01,21,17.40
2015,06,23,01,22,17.40
2015,06,23,01,23,17.40
2015,06,23,01,24,17.30
2015,06,23,01,25,17.30
2015,06,23,01,26,17.30
2015,06,23,01,27,17.30
2015,06,23,01,28,17.30
2015,06,23,01,29,17.30
2015,06,23,01,30,17.20
2015,06,23,01,31,17.20
2015,06,23,01,32,17.20
2015,06,23,01,33,17.20
2015,06,23,01,34,17.20
2015,06,23,01,35,17.20
2015,06,23,01,36,17.20
2015,06,23,01,37,17.10
2015,06,23,01,38,17.10
2015,06,23,01,39,17.10
2015,06,23,01,40,17.10
2015,06,23,01,41,17.10
2015,06,23,01,42,17.10
2015,06,23,01,43,17.00
2015,06,23,01,44,17.00
2015,06,23,01,45,17.00
2015,06,23,01,46,17.00
2015,06,23,01,47,17.00
2015,06,23,01,48,17.00
2015,06,23,01,49,17.00
2015,06,23,01,50,16.90
2015,06,23,01,51,16.90
2015,06,23,01,52,16.90
2015,06,23,01,53,16.90
2015,06,23,01,54,16.90
2015,06,23,01,55,16.80
2015,06,23,01,56,16.80
2015,06,23,01,57,16.80
2015,06,23,01,58,16.80
2015,06,23,01,59,16.80
2015,06,23,02,00,16.80
2015,06,23,02,01,16.70
2015,06,23,02,02,16.70
2015,06,23,02,03,16.70
2015,06,23,02,04,16.70
2015,06,23,02,05,16.70
2015,06,23,02,06,16.60
2015,06,23,02,07,16.60
2015,06,23,02,08,16.50
2015,06,23,02,09,16.50
2015,06,23,02,10,16.40
2015,06,23,02,11,16.30
2015,06,23,02,12,16.30
2015,06,23,02,13,16.20
2015,06,23,02,14,16.20
2015,06,23,02,15,16.20
2015,06,23,02,16,16.10
2015,06,23,02,17,16.10
2015,06,23,02,18,16.10
2015,06,23,02,19,16.10
2015,06,23,02,20,16.10
2015,06,23,02,21,16.10
2015,06,23,02,22,16.10
2015,06,23,02,23,16.10
2015,06,23,02,24,16.20
2015,06,23,02,25,16.20
2015,06,23,02,26,16.20
2015,06,23,02,27,16.20
2015,06,23,02,28,16.30
2015,06,23,02,29,16.30
2015,06,23,02,30,16.30
2015,06,23,02,31,16.30
2015,06,23,02,32,16.30
2015,06,23,02,33,16.30
2015,06,23,02,34,16.30
2015,06,23,02,35,16.30
2015,06,23,02,36,16.30
2015,06,23,02,37,16.30
2015,06,23,02,38,16.30
2015,06,23,02,39,16.30
2015,06,23,02,40,16.30
2015,06,23,02,41,16.30
2015,06,23,02,42,16.30
2015,06,23,02,43,16.20
2015,06,23,02,44,16.20
2015,06,23,02,45,16.20
2015,06,23,02,46,16.10
2015,06,23,02,47,16.00
2015,06,23,02,48,16.00
2015,06,23,02,49,15.90
2015,06,23,02,50,15.90
2015,06,23,02,51,15.90
2015,06,23,02,52,15.80
2015,06,23,02,53,15.80
2015,06,23,02,54,15.80
2015,06,23,02,55,15.80
2015,06,23,02,56,15.80
2015,06,23,02,57,15.80
2015,06,23,02,58,15.80
2015,06,23,02,59,15.80
2015,06,23,03,00,15.80
2015,06,23,03,01,15.80
2015,06,23,03,02,15.70
2015,06,23,03,06,15.60
2015,06,23,03,07,15.60
2015,06,23,03,08,15.60
2015,06,23,03,09,15.60
2015,06,23,03,10,15.50
2015,06,23,03,11,15.50
2015,06,23,03,12,15.40
2015,06,23,03,13,15.40
2015,06,23,03,14,15.40
2015,06,23,03,15,15.40
2015,06,23,03,16,15.30
2015,06,23,03,17,15.30
2015,06,23,03,18,15.30
2015,06,23,03,19,15.20
2015,06,23,03,20,15.20
2015,06,23,03,21,15.10
2015,06,23,03,22,15.00
2015,06,23,03,23,15.00
2015,06,23,03,24,15.00
2015,06,23,03,25,15.00
2015,06,23,03,26,15.00
2015,06,23,03,27,15.00
2015,06,23,03,28,15.00
2015,06,23,03,29,14.90
2015,06,23,03,30,14.90
2015,06,23,03,31,14.80
2015,06,23,03,32,14.80
2015,06,23,03,33,14.80
2015,06,23,03,34,14.80
2015,06,23,03,35,14.70
2015,06,23,03,36,14.70
2015,06,23,03,37,14.60
2015,06,23,03,38,14.60
2015,06,23,03,39,14.50
2015,06,23,03,40,14.40
2015,06,23,03,41,14.40
2015,06,23,03,42,14.30
2015,06,23,03,43,14.30
2015,06,23,03,44,14.20
2015,06,23,03,45,14.20
2015,06,23,03,46,14.10
2015,06,23,03,47,14.10
2015,06,23,03,48,14.00
2015,06,23,03,49,13.90
2015,06,23,03,50,13.90
2015,06,23,03,51,13.80
2015,06,23,03,52,13.70
2015,06,23,03,53,13.70
2015,06,23,03,54,13.60
2015,06,23,03,55,13.60
2015,06,23,03,56,13.50
2015,06,23,03,57,13.50
2015,06,23,03,58,13.40
2015,06,23,03,59,13.40
2015,06,23,04,00,13.30
2015,06,23,04,01,13.30
2015,06,23,04,02,13.20
2015,06,23,04,03,13.20
2015,06,23,04,04,13.10
2015,06,23,04,05,13.10
2015,06,23,04,06,13.00
2015,06,23,04,07,13.00
2015,06,23,04,08,12.90
2015,06,23,04,09,12.90
2015,06,23,04,10,12.80
2015,06,23,04,11,12.80
2015,06,23,04,12,12.80
2015,06,23,04,13,12.70
2015,06,23,04,14,12.70
2015,06,23,04,15,12.70
2015,06,23,04,16,12.70
2015,06,23,04,17,12.60
2015,06,23,04,18,12.60
2015,06,23,04,19,12.60
2015,06,23,04,20,12.60
2015,06,23,04,21,12.50
2015,06,23,04,22,12.50
2015,06,23,04,23,12.50
2015,06,23,04,24,12.40
2015,06,23,04,25,12.40
2015,06,23,04,26,12.40
2015,06,23,04,27,12.30
2015,06,23,04,28,12.30
2015,06,23,04,29,12.30
2015,06,23,04,30,12.30
2015,06,23,04,31,12.20
2015,06,23,04,32,12.20
2015,06,23,04,33,12.20
2015,06,23,04,34,12.20
2015,06,23,04,35,12.10
2015,06,23,04,36,12.10
2015,06,23,04,37,12.10
2015,06,23,04,38,12.00
2015,06,23,04,39,12.00
2015,06,23,04,40,12.00
2015,06,23,04,41,11.90
2015,06,23,04,42,11.90
2015,06,23,04,43,11.90
2015,06,23,04,44,11.90
2015,06,23,04,45,11.80
2015,06,23,04,46,11.80
2015,06,23,04,47,11.80
2015,06,23,04,48,11.80
2015,06,23,04,49,11.70
2015,06,23,04,50,11.70
2015,06,23,04,51,11.70
2015,06,23,04,52,11.70
2015,06,23,04,53,11.70
2015,06,23,04,54,11.60
2015,06,23,04,55,11.60
2015,06,23,04,56,11.60
2015,06,23,04,57,11.60
2015,06,23,04,58,11.50
2015,06,23,04,59,11.50
2015,06,23,05,00,11.50
2015,06,23,05,01,11.40
2015,06,23,05,02,11.40
2015,06,23,05,03,11.40
2015,06,23,05,04,11.40
2015,06,23,05,05,11.30
2015,06,23,05,06,11.30
2015,06,23,05,07,11.30
2015,06,23,05,08,11.30
2015,06,23,05,09,11.30
2015,06,23,05,10,11.20
2015,06,23,05,11,11.20
2015,06,23,05,12,11.20
2015,06,23,05,13,11.20
2015,06,23,05,14,11.20
2015,06,23,05,15,11.10
2015,06,23,05,16,11.10
2015,06,23,05,17,11.10
2015,06,23,05,18,11.10
2015,06,23,05,19,11.10
2015,06,23,05,20,11.10
2015,06,23,05,21,11.10
2015,06,23,05,22,11.10
2015,06,23,05,23,11.10
2015,06,23,05,24,11.10
2015,06,23,05,25,11.10
2015,06,23,05,26,11.10
2015,06,23,05,27,11.10
2015,06,23,05,28,11.10
2015,06,23,05,29,11.10
2015,06,23,05,30,11.10
2015,06,23,05,31,11.20
2015,06,23,05,32,11.20
2015,06,23,05,33,11.20
2015,06,23,05,34,11.20
2015,06,23,05,35,11.20
2015,06,23,05,36,11.20
2015,06,23,05,37,11.20
2015,06,23,05,38,11.20
2015,06,23,05,39,11.20
2015,06,23,05,40,11.20
2015,06,23,05,41,11.20
2015,06,23,05,42,11.20
2015,06,23,05,43,11.20
2015,06,23,05,44,11.20
2015,06,23,05,45,11.20
2015,06,23,05,46,11.20
2015,06,23,05,47,11.20
2015,06,23,05,48,11.20
2015,06,23,05,49,11.20
2015,06,23,05,50,11.30
2015,06,23,05,51,11.30
2015,06,23,05,52,11.30
2015,06,23,05,53,11.30
2015,06,23,05,54,11.30
2015,06,23,05,55,11.30
2015,06,23,05,56,11.30
2015,06,23,05,57,11.30
2015,06,23,05,58,11.30
2015,06,23,05,59,11.30
2015,06,23,06,00,11.30
2015,06,23,06,01,11.30
2015,06,23,06,02,11.40
2015,06,23,06,03,11.40
2015,06,23,06,04,11.40
2015,06,23,06,05,11.40
2015,06,23,06,06,11.40
2015,06,23,06,07,11.40
2015,06,23,06,08,11.40
2015,06,23,06,09,11.50
2015,06,23,06,10,11.50
2015,06,23,06,11,11.50
2015,06,23,06,12,11.50
2015,06,23,06,13,11.50
2015,06,23,06,14,11.60
2015,06,23,06,15,11.60
2015,06,23,06,16,11.60
2015,06,23,06,17,11.60
2015,06,23,06,18,11.60
2015,06,23,06,19,11.60
2015,06,23,06,20,11.60
2015,06,23,06,21,11.60
2015,06,23,06,22,11.60
2015,06,23,06,23,11.70
2015,06,23,06,24,11.70
2015,06,23,06,25,11.70
2015,06,23,06,26,11.70
2015,06,23,06,27,11.80
2015,06,23,06,28,11.80
2015,06,23,06,29,11.80
2015,06,23,06,30,11.80
2015,06,23,06,31,11.90
2015,06,23,06,32,11.90
2015,06,23,06,33,11.90
2015,06,23,06,34,12.00
2015,06,23,06,35,12.10
2015,06,23,06,36,12.10
2015,06,23,06,37,12.20
2015,06,23,06,38,12.30
2015,06,23,06,39,12.30
2015,06,23,06,40,12.40
2015,06,23,06,41,12.40
2015,06,23,06,42,12.50
2015,06,23,06,43,12.60
2015,06,23,06,44,12.60
2015,06,23,06,45,12.70
2015,06,23,06,46,12.70
2015,06,23,06,47,12.80
2015,06,23,06,48,12.90
2015,06,23,06,49,13.00
2015,06,23,06,50,13.10
2015,06,23,06,51,13.10
2015,06,23,06,52,13.20
2015,06,23,06,53,13.30
2015,06,23,06,54,13.30
2015,06,23,06,55,13.40
2015,06,23,06,56,13.50
2015,06,23,06,57,13.60
2015,06,23,06,58,13.60
2015,06,23,06,59,13.70
2015,06,23,07,00,13.70
2015,06,23,07,01,13.80
2015,06,23,07,02,13.80
2015,06,23,07,03,13.80
2015,06,23,07,04,13.90
2015,06,23,07,05,14.00
2015,06,23,07,06,14.00
2015,06,23,07,07,14.10
2015,06,23,07,08,14.10
2015,06,23,07,09,14.10
2015,06,23,07,10,14.20
2015,06,23,07,11,14.20
2015,06,23,07,12,14.20
2015,06,23,07,13,14.30
2015,06,23,07,14,14.30
2015,06,23,07,15,14.40
2015,06,23,07,16,14.40
2015,06,23,07,17,14.50
2015,06,23,07,18,14.50
2015,06,23,07,19,14.50
2015,06,23,07,20,14.40
2015,06,23,07,21,14.30
2015,06,23,07,22,14.30
2015,06,23,07,23,14.30
2015,06,23,07,24,14.30
2015,06,23,07,25,14.40
2015,06,23,07,26,14.40
2015,06,23,07,27,14.50
2015,06,23,07,28,14.50
2015,06,23,07,29,14.50
2015,06,23,07,30,14.50
2015,06,23,07,31,14.50
2015,06,23,07,32,14.50
2015,06,23,07,33,14.50
2015,06,23,07,34,14.50
2015,06,23,07,35,14.60
2015,06,23,07,36,14.60
2015,06,23,07,37,14.60
2015,06,23,07,38,14.60
2015,06,23,07,39,14.60
2015,06,23,07,40,14.70
2015,06,23,07,41,14.70
2015,06,23,07,42,14.60
2015,06,23,07,43,14.50
2015,06,23,07,44,14.50
2015,06,23,07,45,14.50
2015,06,23,07,46,14.60
2015,06,23,07,47,14.70
2015,06,23,07,48,14.70
2015,06,23,07,49,14.80
2015,06,23,07,50,14.90
2015,06,23,07,51,15.00
2015,06,23,07,52,15.00
2015,06,23,07,53,15.00
2015,06,23,07,54,15.00
2015,06,23,07,55,15.00
2015,06,23,07,56,15.00
2015,06,23,07,57,15.00
2015,06,23,07,58,15.00
2015,06,23,07,59,15.00
2015,06,23,08,00,15.00
2015,06,23,08,01,15.00
2015,06,23,08,02,15.00
2015,06,23,08,03,15.00
2015,06,23,08,04,15.00
2015,06,23,08,05,15.00
2015,06,23,08,06,15.00
2015,06,23,08,07,15.00
2015,06,23,08,08,15.00
2015,06,23,08,09,15.00
2015,06,23,08,10,15.00
2015,06,23,08,11,15.00
2015,06,23,08,12,15.00
2015,06,23,08,13,15.00
2015,06,23,08,14,15.20
2015,06,23,08,15,15.20
2015,06,23,08,16,15.20
2015,06,23,08,17,15.20
2015,06,23,08,18,15.00
2015,06,23,08,19,15.00
2015,06,23,08,20,15.00
2015,06,23,08,21,15.00
2015,06,23,08,22,15.00
2015,06,23,08,23,15.00
2015,06,23,08,24,15.00
2015,06,23,08,25,15.00
2015,06,23,08,26,15.00
2015,06,23,08,27,15.00
2015,06,23,08,28,15.00
2015,06,23,08,29,15.00
2015,06,23,08,30,15.00
2015,06,23,08,31,15.10
2015,06,23,08,32,15.20
2015,06,23,08,33,15.20
2015,06,23,08,34,15.30
2015,06,23,08,35,15.40
2015,06,23,08,36,15.50
2015,06,23,08,37,15.50
2015,06,23,08,38,15.40
2015,06,23,08,39,15.50
2015,06,23,08,40,15.60
2015,06,23,08,41,15.60
2015,06,23,08,42,15.60
2015,06,23,08,43,15.60
2015,06,23,08,44,15.60
2015,06,23,08,45,15.60
2015,06,23,08,46,15.60
2015,06,23,08,47,15.60
2015,06,23,08,48,15.50
2015,06,23,08,49,15.40
2015,06,23,08,50,15.30
2015,06,23,08,51,15.20
2015,06,23,08,52,15.20
2015,06,23,08,53,15.20
2015,06,23,08,54,15.20
2015,06,23,08,55,15.30
2015,06,23,08,56,15.40
2015,06,23,08,57,15.40
2015,06,23,08,58,15.50
2015,06,23,08,59,15.60
2015,06,23,09,00,15.60
2015,06,23,09,01,15.70
2015,06,23,09,02,15.70
2015,06,23,09,03,15.70
2015,06,23,09,04,15.80
2015,06,23,09,05,15.80
2015,06,23,09,06,15.80
2015,06,23,09,07,15.80
2015,06,23,09,08,15.70
2015,06,23,09,09,15.70
2015,06,23,09,10,15.70
2015,06,23,09,11,15.80
2015,06,23,09,12,15.80
2015,06,23,09,13,15.90
2015,06,23,09,14,15.90
2015,06,23,09,15,16.00
2015,06,23,09,16,16.00
2015,06,23,09,17,16.00
2015,06,23,09,18,16.20
2015,06,23,09,19,16.20
2015,06,23,09,20,16.30
2015,06,23,09,21,16.40
2015,06,23,09,22,16.40
2015,06,23,09,23,16.50
2015,06,23,09,24,16.60
2015,06,23,09,25,16.60
2015,06,23,09,26,16.60
2015,06,23,09,27,16.60
2015,06,23,09,28,16.60
2015,06,23,09,29,16.60
2015,06,23,09,30,16.70
2015,06,23,09,31,16.50
2015,06,23,09,32,16.40
2015,06,23,09,33,16.20
2015,06,23,09,34,16.10
2015,06,23,09,35,15.90
2015,06,23,09,36,15.80
2015,06,23,09,37,15.80
2015,06,23,09,38,15.80
2015,06,23,09,39,15.80
2015,06,23,09,40,15.90
2015,06,23,09,41,15.90
2015,06,23,09,42,16.00
2015,06,23,09,43,16.10
2015,06,23,09,44,16.10
2015,06,23,09,45,16.10
2015,06,23,09,46,16.30
2015,06,23,09,47,16.40
2015,06,23,09,48,16.50
2015,06,23,09,49,16.60
2015,06,23,09,50,16.60
2015,06,23,09,51,16.60
2015,06,23,09,52,16.60
2015,06,23,09,53,16.50
2015,06,23,09,54,16.50
2015,06,23,09,55,16.50
2015,06,23,09,56,16.50
2015,06,23,09,57,16.50
2015,06,23,09,58,16.50
2015,06,23,09,59,16.60
2015,06,23,10,00,16.60
2015,06,23,10,01,16.70
2015,06,23,10,02,16.70
2015,06,23,10,03,16.80
2015,06,23,10,04,16.90
2015,06,23,10,05,16.90
2015,06,23,10,06,16.90
2015,06,23,10,07,17.00
2015,06,23,10,08,17.00
2015,06,23,10,09,17.00
2015,06,23,10,10,17.10
2015,06,23,10,11,17.10
2015,06,23,10,12,17.10
2015,06,23,10,13,17.10
2015,06,23,10,14,17.20
2015,06,23,10,15,17.10
2015,06,23,10,16,17.10
2015,06,23,10,17,17.10
2015,06,23,10,18,17.10
2015,06,23,10,19,17.10
2015,06,23,10,20,17.10
2015,06,23,10,21,17.10
2015,06,23,10,22,17.00
2015,06,23,10,23,16.90
2015,06,23,10,24,17.00
2015,06,23,10,25,16.90
2015,06,23,10,26,16.90
2015,06,23,10,27,16.90
2015,06,23,10,28,16.90
2015,06,23,10,29,16.90
2015,06,23,10,30,17.00
2015,06,23,10,31,17.10
2015,06,23,10,32,17.20
2015,06,23,10,33,17.20
2015,06,23,10,34,17.20
2015,06,23,10,35,17.10
2015,06,23,10,36,16.90
2015,06,23,10,37,16.90
2015,06,23,10,38,16.90
2015,06,23,10,39,16.80
2015,06,23,10,40,16.80
2015,06,23,10,41,16.80
2015,06,23,10,42,16.80
2015,06,23,10,43,16.90
2015,06,23,10,44,16.90
2015,06,23,10,45,16.80
2015,06,23,10,46,16.80
2015,06,23,10,47,16.80
2015,06,23,10,48,16.80
2015,06,23,10,49,16.80
2015,06,23,10,50,16.70
2015,06,23,10,51,16.70
2015,06,23,10,52,16.70
2015,06,23,10,53,16.60
2015,06,23,10,54,16.70
2015,06,23,10,55,16.80
2015,06,23,10,56,16.80
2015,06,23,10,57,16.90
2015,06,23,10,58,16.90
2015,06,23,10,59,16.90
2015,06,23,11,00,16.90
2015,06,23,11,01,17.00
2015,06,23,11,02,17.10
2015,06,23,11,03,17.10
2015,06,23,11,04,17.30
2015,06,23,11,05,17.30
2015,06,23,11,06,17.40
2015,06,23,11,07,17.50
2015,06,23,11,08,17.60
2015,06,23,11,09,17.60
2015,06,23,11,10,17.70
2015,06,23,11,11,17.80
2015,06,23,11,12,17.90
2015,06,23,11,13,18.00
2015,06,23,11,14,18.00
2015,06,23,11,15,18.00
2015,06,23,11,16,17.90
2015,06,23,11,17,17.80
2015,06,23,11,18,17.70
2015,06,23,11,19,17.60
2015,06,23,11,20,17.50
2015,06,23,11,21,17.50
2015,06,23,11,22,17.40
2015,06,23,11,23,17.40
2015,06,23,11,24,17.40
2015,06,23,11,25,17.50
2015,06,23,11,26,17.60
2015,06,23,11,27,17.60
2015,06,23,11,28,17.50
2015,06,23,11,29,17.40
2015,06,23,11,30,17.30
2015,06,23,11,31,17.30
2015,06,23,11,32,17.30
2015,06,23,11,33,17.30
2015,06,23,11,34,17.40
2015,06,23,11,35,17.50
2015,06,23,11,36,17.60
2015,06,23,11,37,17.70
2015,06,23,11,38,17.80
2015,06,23,11,39,17.80
2015,06,23,11,40,17.70
2015,06,23,11,41,17.70
2015,06,23,11,42,17.60
2015,06,23,11,43,17.60
2015,06,23,11,44,17.70
2015,06,23,11,45,17.80
2015,06,23,11,46,17.90
2015,06,23,11,47,17.90
2015,06,23,11,48,17.90
2015,06,23,11,49,18.00
2015,06,23,11,50,18.00
2015,06,23,11,51,18.10
2015,06,23,11,52,18.10
2015,06,23,11,53,18.20
2015,06,23,11,54,18.20
2015,06,23,11,55,18.30
2015,06,23,11,56,18.30
2015,06,23,11,57,18.30
2015,06,23,11,58,18.40
2015,06,23,11,59,18.50
2015,06,23,12,00,18.60
2015,06,23,12,01,18.70
2015,06,23,12,02,18.80
2015,06,23,12,03,18.90
2015,06,23,12,04,18.90
2015,06,23,12,05,18.90
2015,06,23,12,06,18.90
2015,06,23,12,07,18.90
2015,06,23,12,08,18.90
2015,06,23,12,09,18.80
2015,06,23,12,10,18.80
2015,06,23,12,11,18.80
2015,06,23,12,12,18.70
2015,06,23,12,13,18.60
2015,06,23,12,14,18.50
2015,06,23,12,15,18.40
2015,06,23,12,16,18.40
2015,06,23,12,17,18.50
2015,06,23,12,18,18.50
2015,06,23,12,19,18.50
2015,06,23,12,20,18.60
2015,06,23,12,21,18.60
2015,06,23,12,22,18.60
2015,06,23,12,23,18.70
2015,06,23,12,24,18.70
2015,06,23,12,25,18.60
2015,06,23,12,26,18.60
2015,06,23,12,27,18.60
2015,06,23,12,28,18.60
2015,06,23,12,29,18.70
2015,06,23,12,30,18.70
2015,06,23,12,31,18.80
2015,06,23,12,32,18.90
2015,06,23,12,33,18.90
2015,06,23,12,34,18.90
2015,06,23,12,35,18.90
2015,06,23,12,36,18.90
2015,06,23,12,37,18.90
2015,06,23,12,38,19.00
2015,06,23,12,39,19.00
2015,06,23,12,40,19.00
2015,06,23,12,41,19.00
2015,06,23,12,42,18.90
2015,06,23,12,43,18.90
2015,06,23,12,44,18.90
2015,06,23,12,45,19.00
2015,06,23,12,46,19.10
2015,06,23,12,47,19.20
2015,06,23,12,48,19.20
2015,06,23,12,49,19.20
2015,06,23,12,50,19.20
2015,06,23,12,51,19.30
2015,06,23,12,52,19.30
2015,06,23,12,53,19.30
2015,06,23,12,54,19.40
2015,06,23,12,55,19.30
2015,06,23,12,56,19.10
2015,06,23,12,57,19.10
2015,06,23,12,58,18.90
2015,06,23,12,59,18.90
2015,06,23,13,00,18.90
2015,06,23,13,01,18.90
2015,06,23,13,02,18.90
2015,06,23,13,03,18.90
2015,06,23,13,04,18.90
2015,06,23,13,05,18.90
2015,06,23,13,06,18.80
2015,06,23,13,07,18.60
2015,06,23,13,08,18.40
2015,06,23,13,09,18.30
2015,06,23,13,10,18.30
2015,06,23,13,11,18.30
2015,06,23,13,12,18.20
2015,06,23,13,13,18.20
2015,06,23,13,14,18.30
2015,06,23,13,15,18.30
2015,06,23,13,16,18.30
2015,06,23,13,17,18.40
2015,06,23,13,18,18.40
2015,06,23,13,19,18.40
2015,06,23,13,20,18.50
2015,06,23,13,21,18.60
2015,06,23,13,22,18.70
2015,06,23,13,23,18.80
2015,06,23,13,24,18.90
2015,06,23,13,25,19.00
2015,06,23,13,26,19.00
2015,06,23,13,27,19.00
2015,06,23,13,28,19.00
2015,06,23,13,29,18.90
2015,06,23,13,30,18.80
2015,06,23,13,31,18.70
2015,06,23,13,32,18.70
2015,06,23,13,33,18.60
2015,06,23,13,34,18.50
2015,06,23,13,35,18.50
2015,06,23,13,36,18.40
2015,06,23,13,37,18.40
2015,06,23,13,38,18.20
2015,06,23,13,39,18.20
2015,06,23,13,40,18.10
2015,06,23,13,41,18.10
2015,06,23,13,42,18.10
2015,06,23,13,43,18.20
2015,06,23,13,44,18.30
2015,06,23,13,45,18.30
2015,06,23,13,46,18.40
2015,06,23,13,47,18.50
2015,06,23,13,48,18.60
2015,06,23,13,49,18.70
2015,06,23,13,50,18.80
2015,06,23,13,51,18.80
2015,06,23,13,52,18.90
2015,06,23,13,53,18.90
2015,06,23,13,54,19.00
2015,06,23,13,55,19.10
2015,06,23,13,56,19.20
2015,06,23,13,57,19.20
2015,06,23,13,58,19.20
2015,06,23,13,59,19.20
2015,06,23,14,00,19.30
2015,06,23,14,01,19.30
2015,06,23,14,02,19.30
2015,06,23,14,03,19.30
2015,06,23,14,04,19.20
2015,06,23,14,05,19.00
2015,06,23,14,06,18.90
2015,06,23,14,07,18.90
2015,06,23,14,08,18.80
2015,06,23,14,09,18.80
2015,06,23,14,10,18.80
2015,06,23,14,11,18.80
2015,06,23,14,12,18.80
2015,06,23,14,13,18.80
2015,06,23,14,14,18.90
2015,06,23,14,15,19.00
2015,06,23,14,16,19.00
2015,06,23,14,17,19.20
2015,06,23,14,18,19.20
2015,06,23,14,19,19.30
2015,06,23,14,20,19.50
2015,06,23,14,21,19.60
2015,06,23,14,22,19.60
2015,06,23,14,23,19.70
2015,06,23,14,24,19.80
2015,06,23,14,25,19.80
2015,06,23,14,26,19.90
2015,06,23,14,27,20.00
2015,06,23,14,28,20.00
2015,06,23,14,29,20.20
2015,06,23,14,30,20.20
2015,06,23,14,31,20.30
2015,06,23,14,32,20.50
2015,06,23,14,33,20.60
2015,06,23,14,34,20.70
2015,06,23,14,35,20.80
2015,06,23,14,36,20.80
2015,06,23,14,37,20.80
2015,06,23,14,38,20.90
2015,06,23,14,39,20.80
2015,06,23,14,40,20.80
2015,06,23,14,41,20.80
2015,06,23,14,42,20.80
2015,06,23,14,43,20.60
2015,06,23,14,44,20.60
2015,06,23,14,45,20.50
2015,06,23,14,46,20.50
2015,06,23,14,47,20.40
2015,06,23,14,48,20.40
2015,06,23,14,49,20.40
2015,06,23,14,50,20.50
2015,06,23,14,51,20.50
2015,06,23,14,52,20.60
2015,06,23,14,53,20.60
2015,06,23,14,54,20.60
2015,06,23,14,55,20.60
2015,06,23,14,56,20.70
2015,06,23,14,57,20.80
2015,06,23,14,58,20.80
2015,06,23,14,59,20.80
2015,06,23,15,00,20.80
2015,06,23,15,01,20.80
2015,06,23,15,02,20.80
2015,06,23,15,03,20.70
2015,06,23,15,04,20.60
2015,06,23,15,05,20.60
2015,06,23,15,06,20.60
2015,06,23,15,07,20.60
2015,06,23,15,08,20.60
2015,06,23,15,09,20.50
2015,06,23,15,10,20.50
2015,06,23,15,11,20.40
2015,06,23,15,12,20.40
2015,06,23,15,13,20.30
2015,06,23,15,14,20.30
2015,06,23,15,15,20.30
2015,06,23,15,16,20.20
2015,06,23,15,17,20.20
2015,06,23,15,18,20.20
2015,06,23,15,19,20.20
2015,06,23,15,20,20.10
2015,06,23,15,21,20.10
2015,06,23,15,22,20.00
2015,06,23,15,23,20.00
2015,06,23,15,24,20.00
2015,06,23,15,25,19.90
2015,06,23,15,26,19.90
2015,06,23,15,27,19.90
2015,06,23,15,28,20.00
2015,06,23,15,29,20.00
2015,06,23,15,30,20.00
2015,06,23,15,31,20.00
2015,06,23,15,32,19.90
2015,06,23,15,33,19.90
2015,06,23,15,34,19.90
2015,06,23,15,35,19.90
2015,06,23,15,36,19.90
2015,06,23,15,37,20.00
2015,06,23,15,38,20.00
2015,06,23,15,39,20.10
2015,06,23,15,40,20.10
2015,06,23,15,41,20.10
2015,06,23,15,42,20.00
2015,06,23,15,43,19.90
2015,06,23,15,44,19.90
2015,06,23,15,45,19.90
2015,06,23,15,46,20.00
2015,06,23,15,47,20.00
2015,06,23,15,48,20.10
2015,06,23,15,49,20.10
2015,06,23,15,50,20.20
2015,06,23,15,51,20.20
2015,06,23,15,52,20.30
2015,06,23,15,53,20.40
2015,06,23,15,54,20.40
2015,06,23,15,55,20.50
2015,06,23,15,56,20.50
2015,06,23,15,57,20.60
2015,06,23,15,58,20.60
2015,06,23,15,59,20.60
2015,06,23,16,00,20.60
2015,06,23,16,01,20.60
2015,06,23,16,02,20.60
2015,06,23,16,03,20.60
2015,06,23,16,04,20.60
2015,06,23,16,05,20.60
2015,06,23,16,06,20.50
2015,06,23,16,07,20.60
2015,06,23,16,08,20.60
2015,06,23,16,09,20.60
2015,06,23,16,10,20.60
2015,06,23,16,11,20.50
2015,06,23,16,12,20.50
2015,06,23,16,13,20.50
2015,06,23,16,14,20.50
2015,06,23,16,15,20.50
2015,06,23,16,16,20.40
2015,06,23,16,17,20.40
2015,06,23,16,18,20.30
2015,06,23,16,19,20.30
2015,06,23,16,20,20.30
2015,06,23,16,21,20.30
2015,06,23,16,22,20.30
2015,06,23,16,23,20.30
2015,06,23,16,24,20.40
2015,06,23,16,25,20.50
2015,06,23,16,26,20.50
2015,06,23,16,27,20.50
2015,06,23,16,28,20.40
2015,06,23,16,29,20.40
2015,06,23,16,30,20.40
2015,06,23,16,31,20.40
2015,06,23,16,32,20.30
2015,06,23,16,33,20.20
2015,06,23,16,34,20.10
2015,06,23,16,35,20.00
2015,06,23,16,36,19.80
2015,06,23,16,37,19.70
2015,06,23,16,38,19.60
2015,06,23,16,39,19.50
2015,06,23,16,40,19.40
2015,06,23,16,41,19.30
2015,06,23,16,42,19.30
2015,06,23,16,43,19.30
2015,06,23,16,44,19.30
2015,06,23,16,45,19.30
2015,06,23,16,46,19.30
2015,06,23,16,47,19.40
2015,06,23,16,48,19.40
2015,06,23,16,49,19.50
2015,06,23,16,50,19.60
2015,06,23,16,51,19.70
2015,06,23,16,52,19.60
2015,06,23,16,53,19.60
2015,06,23,16,54,19.60
2015,06,23,16,55,19.60
2015,06,23,16,56,19.60
2015,06,23,16,57,19.60
2015,06,23,16,58,19.60
2015,06,23,16,59,19.60
2015,06,23,17,00,19.50
2015,06,23,17,01,19.50
2015,06,23,17,02,19.60
2015,06,23,17,03,19.50
2015,06,23,17,04,19.50
2015,06,23,17,05,19.50
2015,06,23,17,06,19.50
2015,06,23,17,07,19.50
2015,06,23,17,08,19.50
2015,06,23,17,09,19.40
2015,06,23,17,10,19.40
2015,06,23,17,11,19.40
2015,06,23,17,12,19.30
2015,06,23,17,13,19.20
2015,06,23,17,14,19.10
2015,06,23,17,15,19.10
2015,06,23,17,16,19.10
2015,06,23,17,17,19.10
2015,06,23,17,18,19.10
2015,06,23,17,19,19.10
2015,06,23,17,20,19.10
2015,06,23,17,21,19.10
2015,06,23,17,22,19.10